STARLINK-37995, 69977

Orbit data source: Space-Track

STARLINK-37995, 69977 is a payload satellite owned by SpaceX/Seattle (US) in SSO that was launched on Sat, 11 Jul 2026 UTC via an FALCON 9 launch vehicle from the Air Force Western Test Range (AFWTR). Payload-class satellites include a variety of spacecraft equipped with specific instruments for various scientific and technological missions. These include communications satellites like Starlink; space stations such as the ISS; scientific satellites like the Hubble; Earth observation satellites from companies like Planet Labs, Umbra, and HawkEye 360; GPS; miniature CubeSats for education and research; and military/defense satellites.

Loading next visibility...
Identifier
69977, 2026-159C
Orbit
SSO
Country
Flag of USUS
Related business
Manufacturer
SpaceX/Seattle
Mission
Operational spacecraft
Bus & Motor
STARLINK V2MO, Unknown motor
Mass
575 kg wet, ~530 kg dry
Launch date (UTC)
2026-07-11 (2 months ago)
Launch vehicle
FALCON 9
Launch site
Air Force Western Test Range (AFWTR)
Object type
Payload
Rocket body
Debris
Shape & HBR
BOX + PAN, 17.7 m
Radar Cross Section
Large (>1 m²)

Expand to show TLE details & history
Last TLE update: 23 hours ago

TLE from 23 hours ago
0 STARLINK-37995
1 69977U 26159C   26264.03109070  .00027951  00000-0  51340-3 0  9991
2 69977  97.2857 105.7654 0001186  86.4785 273.6602 15.49210094 12521
Epoch: 2026-09-21T00:44Z
TLE epoch observation values (Epoch: 2026-09-21T00:44:46.236Z)
Latitude
-0.00001°
Longitude
94.65599°
Altitude
422.117 km
Speed
7.658 km/s
True Right ascension
07h 03m 03s
True Declination
0° 00' 00"
Sunlit
Object was in daylight at epoch
Visualization orbit readout
Latitude
Unknown
Longitude
Unknown
Altitude
Unknown
Speed
Unknown
Apparent Right ascension
Unknown
Apparent Declination
Unknown
Sunlit
N/A
Visualization observer readout
Local Sidereal Time
16:22:33
Azimuth
Unknown
Elevation
Unknown
Doppler factor
Unknown
Orbital elements
Apogee altitude
416.763 km
Perigee altitude
415.152 km
Semi-major axis
6,794.094 km
Eccentricity
0.00012
Inclination
97.2857°
RAAN
105.7654°
Arg. of periapsis
86.4785°
True anomaly
273.64664°
Mean anomaly
273.6602°
Eccentric anomaly
273.65342°
Mean motion
3.87566 °/min
Orbital period
92.89 mins
BSTAR
0.0005134
Loading maneuver chart data...
Computing Atmospheric mass density...
Loading historical data...
Loading historical data...
Loading historical data...
Loading historical data...
Loading historical data...
Loading historical data...
Loading historical data...

Documentation

Showing up to 5 results
|